Home   Weather   Norwich   Past weeks
Flag for United Kingdom

Past Weather in Norwich, England, United Kingdom — Yesterday and Last 2 Weeks

Now
55 °F

Partly sunny.


Feels Like: 53 °F
Forecast: 58 / 50 °F
Wind: 8 mph from East

Location: Norwich Weather Centre

Current Time: Oct 14, 2019 at 2:27:59 pm

Latest Report: Oct 14, 2019 at 1:50 pm


Visibility: N/A

Pressure: 29.74 "Hg

Humidity: 88%

Dew Point: 52 °F

Location of NorwichLocation

Past Weather in Norwich — Graph

°F

Norwich Temperature Yesterday

Maximum temperature yesterday: 63 °F (at 1:20 pm)
Minimum temperature yesterday: 50 °F (at 2:20 am)
Average temperature yesterday: 55 °F

High & Low Weather Summary for the Past Weeks

 TemperatureHumidityPressure
High68 °F (Sep 29, 12:50 pm)100% (Sep 29, 5:20 pm)30.15 "Hg (Sep 29, 5:20 pm)
Low39 °F (Oct 3, 5:50 am)58% (Oct 2, 11:50 am)29.27 "Hg (Sep 29, 1:20 pm)
Average54 °F87%29.75 "Hg
* Reported Sep 29 12:20 pm — Oct 14 12:50 pm, Norwich. Weather by CustomWeather, © 2019

Note: Actual official high and low records may vary slightly from our data, if they occured in-between our weather recording intervals... More about our weather records

Advertising

Norwich Weather History for the Previous 24 Hours

Scroll right to see more
 ConditionsComfort  
Time TempWeatherWind HumidityBarometerVisibility
12:50 pm
Mon, Oct 14
55 °FLight rain. Scattered clouds.8 mph88%29.80 "HgN/A
12:20 pm55 °FPassing clouds.9 mph88%29.80 "HgN/A
11:50 am55 °FLight rain. Passing clouds.7 mph94%29.83 "HgN/A
11:20 am54 °FLight rain. Scattered clouds.6 mph100%29.83 "HgN/A
10:50 am54 °FLight rain. Scattered clouds.5 mph94%29.86 "HgN/A
10:20 am52 °FLight rain. Passing clouds.5 mph94%29.86 "HgN/A
9:50 am52 °FLight rain. Scattered clouds.3 mph94%29.86 "HgN/A
8:50 am50 °FLight rain. Clear.2 mph100%29.86 "HgN/A
8:20 am50 °FSunny.2 mph94%29.86 "Hg10 mi
7:50 am50 °FSunny.1 mph94%29.86 "Hg10 mi
7:20 am48 °FSunny.2 mph100%29.86 "Hg10 mi
6:50 am48 °FClear.2 mph94%29.86 "Hg10 mi
6:20 am48 °FClear.2 mph100%29.86 "Hg10 mi
5:50 am48 °FClear.3 mph94%29.86 "Hg10 mi
5:20 am48 °FCool.2 mph94%29.86 "HgN/A
4:50 am48 °FCool.5 mph94%29.86 "HgN/A
4:20 am48 °FCool.3 mph94%29.86 "HgN/A
3:50 am46 °FCool.2 mph100%29.86 "HgN/A
3:20 am48 °FCool.2 mph94%29.86 "HgN/A
2:50 am48 °FCool.2 mph94%29.86 "HgN/A
2:20 am50 °FCool.3 mph88%29.86 "HgN/A
1:50 am50 °FCool.5 mph88%29.86 "HgN/A
1:20 am50 °FCool.6 mph88%29.86 "HgN/A
12:50 am50 °FPassing clouds.6 mph88%29.83 "HgN/A
12:20 am52 °FClear.6 mph82%29.83 "Hg10 mi
11:50 pm
Sun, Oct 13
50 °FPassing clouds.6 mph88%29.83 "HgN/A
11:20 pm50 °FClear.6 mph88%29.83 "Hg10 mi
10:50 pm52 °FPassing clouds.7 mph82%29.80 "HgN/A
10:20 pm52 °FPassing clouds.7 mph88%29.77 "HgN/A
9:50 pm54 °FPassing clouds.9 mph82%29.77 "HgN/A
9:20 pm54 °FPassing clouds.9 mph82%29.74 "HgN/A
8:50 pm54 °FPassing clouds.10 mph82%29.74 "HgN/A
8:20 pm55 °FPassing clouds.9 mph82%29.71 "HgN/A
7:50 pm55 °FPassing clouds.10 mph82%29.68 "HgN/A
7:20 pm55 °FPassing clouds.9 mph82%29.68 "HgN/A
6:50 pm57 °FPassing clouds.9 mph82%29.65 "HgN/A
6:20 pm57 °FPassing clouds.10 mph82%29.62 "HgN/A
5:50 pm59 °FPassing clouds.13 mph77%29.62 "HgN/A
5:20 pm59 °FPassing clouds.14 mph82%29.59 "HgN/A
4:50 pm61 °FScattered clouds.12 mph83%29.59 "HgN/A
4:20 pm61 °FScattered clouds.10 mph88%29.56 "HgN/A
3:50 pm61 °FLight rain. Scattered clouds.13 mph88%29.53 "HgN/A
3:20 pm63 °FLight rain. Broken clouds.14 mph83%29.53 "Hg6 mi
2:50 pm63 °FLight rain. Partly sunny.12 mph88%29.50 "Hg6 mi
2:20 pm63 °FLight rain. Partly sunny.12 mph88%29.50 "Hg6 mi
Weather by CustomWeather, © 2019

See weather overview